カタログに戻る

CZ-6A DEB

運用中SSO
NORAD 54391·DEBRIS·🇨🇳 China

打ち上げ Nov 11, 2022 から Taiyuan Satellite Launch Center

Loading…

次のパス (今後24時間)

TLE

最新Source: Space-Track

元期: Sep 14, 2026, 02:13 UTC

1 54391U 22151DP  26257.09257233  .00001553  00000-0  32433-3 0  9998
2 54391  98.4575 298.5497 0132209 347.3555  12.4336 14.56077172203010

AllMySatでCZ-6A DEBをリアルタイム追跡

Download on the App Store